Location: Buckland
(65.9785°N, 161.1281°W)
Time: 14:32:19
(UTC+00:00)

Envisat - Visible Passes

Search period start: 09 December 2021 00:00
Search period end: 19 December 2021 00:00
Orbit: 764 x 766 km, 98.2° (Epoch: 08 December)

Date Brightness Start Highest point End Pass type
(mag) Time Alt. Az. Time Alt. Az. Time Alt. Az.
09 Dec 3.1 02:08:39 10° SSE 02:13:45 88° WSW 02:18:54 10° NNW visible
09 Dec 5.2 03:49:08 10° SSW 03:53:28 27° W 03:57:49 10° NNW visible
09 Dec 5.7 14:05:07 10° NE 14:08:08 16° ENE 14:11:08 10° ESE visible
09 Dec 3.8 15:43:26 10° NNE 15:48:24 49° E 15:53:21 10° S visible
09 Dec 3.1 17:22:36 10° NNE 17:27:35 54° WNW 17:32:32 10° SW visible
09 Dec 4.1 19:01:52 10° NNE 19:05:50 24° NW 19:09:48 10° W visible
10 Dec 4.4 03:11:24 10° SSW 03:16:13 42° W 03:21:05 10° NNW visible
10 Dec 6.0 04:54:16 10° WSW 04:56:39 13° WNW 04:59:02 10° NW visible
10 Dec 4.7 15:06:38 10° NNE 15:11:13 32° E 15:15:46 10° SSE visible
10 Dec 2.9 16:45:39 10° NNE 16:50:47 81° WNW 16:55:53 10° SSW visible
10 Dec 3.7 18:24:56 10° NNE 18:29:21 31° NW 18:33:46 10° WSW visible
11 Dec 3.5 02:34:04 10° S 02:39:08 66° WSW 02:44:14 10° NNW visible
11 Dec 5.6 04:15:22 10° SW 04:19:08 20° W 04:22:55 10° NW visible
11 Dec 5.4 14:30:02 10° NE 14:33:52 21° E 14:37:42 10° SE visible
11 Dec 3.3 16:08:44 10° NNE 16:13:50 67° ESE 16:18:55 10° S visible
11 Dec 3.3 17:47:58 10° NNE 17:52:45 42° NW 17:57:32 10° WSW visible
11 Dec 4.2 19:27:10 10° NNE 19:30:50 20° NNW 19:34:28 10° WNW visible
12 Dec 3.0 01:57:05 10° SSE 02:02:11 83° ENE 02:07:19 10° NNW visible
12 Dec 4.9 03:37:15 10° SSW 03:41:46 31° W 03:46:19 10° NNW visible
12 Dec 5.9 13:53:51 10° NE 13:56:21 14° ENE 13:58:51 10° ESE visible
12 Dec 4.1 15:31:53 10° NNE 15:36:46 43° E 15:41:37 10° S visible
12 Dec 3.0 17:11:01 10° NNE 17:16:03 61° WNW 17:21:04 10° SW visible
12 Dec 4.0 18:50:17 10° NNE 18:54:24 25° NW 18:58:31 10° W visible
13 Dec 4.1 02:59:39 10° S 03:04:35 48° W 03:09:32 10° NNW visible
13 Dec 5.9 04:41:57 10° WSW 04:44:53 15° WNW 04:47:48 10° NW visible
13 Dec 4.9 14:55:08 10° NNE 14:59:32 28° E 15:03:54 10° SSE visible
13 Dec 2.9 16:34:04 10° NNE 16:39:13 89° ESE 16:44:20 10° SSW visible
13 Dec 3.6 18:13:20 10° NNE 18:17:53 34° NW 18:22:26 10° WSW visible
14 Dec 3.3 02:22:26 10° SSE 02:27:32 75° WSW 02:32:39 10° NNW visible
14 Dec 5.4 04:03:21 10° SW 04:07:24 23° W 04:11:28 10° NNW visible
14 Dec 5.5 14:18:36 10° NE 14:22:08 18° E 14:25:38 10° SE visible
14 Dec 3.5 15:57:10 10° NNE 16:02:14 59° ESE 16:07:16 10° S visible
14 Dec 3.2 17:36:23 10° NNE 17:41:16 47° NW 17:46:07 10° SW visible
14 Dec 4.2 19:15:37 10° NNE 19:19:24 22° NNW 19:23:12 10° W visible
15 Dec 3.0 01:45:33 10° SSE 01:50:38 73° ENE 01:55:44 10° NNW visible
15 Dec 4.7 03:25:25 10° SSW 03:30:06 35° W 03:34:47 10° NNW visible
15 Dec 6.2 05:09:23 10° W 05:10:42 11° WNW 05:12:01 10° NW visible
15 Dec 6.0 13:42:45 10° NE 13:44:34 12° ENE 13:46:22 10° E visible
15 Dec 4.3 15:20:20 10° NNE 15:25:06 38° E 15:29:50 10° SSE visible
15 Dec 2.9 16:59:25 10° NNE 17:04:30 69° WNW 17:09:34 10° SW visible
15 Dec 3.9 18:38:42 10° NNE 18:42:58 27° NW 18:47:12 10° W visible
16 Dec 3.8 02:47:56 10° S 02:52:56 55° WSW 02:57:58 10° NNW visible
16 Dec 5.8 04:29:46 10° WSW 04:33:06 17° W 04:36:28 10° NW visible
16 Dec 5.1 14:43:38 10° NNE 14:47:49 25° E 14:51:59 10° SE visible
16 Dec 3.0 16:22:29 10° NNE 16:27:38 80° ESE 16:32:44 10° SSW visible
16 Dec 3.5 18:01:45 10° NNE 18:06:25 37° NW 18:11:03 10° WSW visible
17 Dec 3.1 02:10:50 10° SSE 02:15:56 85° WSW 02:21:04 10° NNW visible
17 Dec 5.2 03:51:25 10° SW 03:55:41 26° W 03:59:59 10° NNW visible
17 Dec 5.7 14:07:14 10° NE 14:10:22 16° ENE 14:13:30 10° ESE visible
17 Dec 3.8 15:45:36 10° NNE 15:50:36 51° E 15:55:34 10° S visible
17 Dec 3.1 17:24:47 10° NNE 17:29:44 53° WNW 17:34:41 10° SW visible
17 Dec 4.1 19:04:02 10° NNE 19:07:59 23° NNW 19:11:55 10° W visible
18 Dec 4.4 03:13:38 10° SSW 03:18:26 40° W 03:23:16 10° NNW visible
18 Dec 6.0 04:56:43 10° W 04:58:54 13° WNW 05:01:06 10° NW visible
18 Dec 6.1 13:32:25 10° ENE 13:32:45 10° ENE 13:33:05 10° ENE visible
18 Dec 4.6 15:08:48 10° NNE 15:13:25 33° E 15:18:02 10° SSE visible
18 Dec 2.9 16:47:50 10° NNE 16:52:57 78° WNW 16:58:03 10° SSW visible
18 Dec 3.8 18:27:07 10° NNE 18:31:30 30° NW 18:35:53 10° WSW visible
